weather.gov     
National Weather Service

Terminal Aerodrome Forecast
NWS Homepage
This page is being discontinued on March 12, 2014.
The same data is available at this site. Please update your bookmarks.
Thank you, and we apologize for the inconvenience.
Please send an email to SR-SRH.Webmaster@noaa.gov with any concerns.


Current Version
Previous Version:    01  02  03  04  05  06  07  08  09  10  11  12  13  14  
[Printable]
023
FTUS41 KBOX 202012 AAA
TAFORH
TAF AMD
KORH 202012Z 2020/2118 20010KT P6SM BKN035
     FM202200 20011KT P6SM SCT040
     FM210300 21008KT P6SM SCT040
     FM210400 21008KT P6SM BKN040
     FM210900 19006KT 3SM BR BKN003
     FM211500 17007KT 3SM BR BKN008=


023
FTUS41 KBOX 202012 AAA
TAFORH
TAF AMD
KORH 202012Z 2020/2118 20010KT P6SM BKN035
     FM202200 20011KT P6SM SCT040
     FM210300 21008KT P6SM SCT040
     FM210400 21008KT P6SM BKN040
     FM210900 19006KT 3SM BR BKN003
     FM211500 17007KT 3SM BR BKN008=




U.S. Dept. of Commerce
NOAA National Weather Service
1325 East West Highway
Silver Spring, MD 20910
E-mail: w-nws.webmaster@noaa.gov
Page last modified: May 16, 2007
NATIONAL WEATHER SERVICE: for Safety, for Work, for Fun - FOR LIFE